| time (UTC) | temp F | wind direction | speed knots | gust knots | rain 1hr in | rain 24hr in | rain mn in | humidity % | barometer mb |
| 20260502185505 | 63 | 254 | 7.0 | 9.6 | 0.00 | 0.00 | 0.00 | 79 | 1013.4 |
| 20260502184451 | 65 | 247 | 4.3 | 7.8 | 0.00 | 0.00 | 0.00 | 77 | 1013.8 |
| 20260502183437 | 64 | 232 | 0.9 | 3.5 | 0.00 | 0.00 | 0.00 | 77 | 1013.4 |
| 20260502182928 | 64 | 126 | 0.9 | 2.6 | 0.00 | 0.00 | 0.00 | 78 | 1013.8 |
| 20260502181914 | 63 | 164 | 2.6 | 5.2 | 0.00 | 0.00 | 0.00 | 79 | 1013.4 |
| 20260502181406 | 63 | 152 | 2.6 | 5.2 | 0.00 | 0.00 | 0.00 | 80 | 1013.4 |
| 20260502180859 | 63 | 96 | 3.5 | 5.2 | 0.00 | 0.00 | 0.00 | 80 | 1013.4 |
| 20260502170224 | 61 | 6 | 1.7 | 2.6 | 0.00 | 0.00 | 0.00 | 85 | 1014.1 |
| 20260502164156 | 60 | 273 | 0.0 | 1.7 | 0.00 | 0.00 | 0.00 | 87 | 1014.1 |
| 20260502163649 | 59 | 295 | 0.0 | 3.5 | 0.00 | 0.00 | 0.00 | 88 | 1014.1 |
| 20260502163141 | 59 | 270 | 0.9 | 3.5 | 0.00 | 0.00 | 0.00 | 88 | 1014.1 |
| 20260502162127 | 59 | 169 | 1.7 | 3.5 | 0.00 | 0.00 | 0.00 | 88 | 1014.1 |
| 20260502161112 | 59 | 193 | 3.5 | 5.2 | 0.00 | 0.00 | 0.00 | 89 | 1014.1 |
| 20260502160604 | 59 | 310 | 0.9 | 6.1 | 0.00 | 0.00 | 0.00 | 89 | 1014.1 |
| 20260502152000 | 58 | 341 | 0.0 | 5.2 | 0.00 | 0.00 | 0.00 | 90 | 1013.8 |
| 20260502151452 | 58 | 144 | 0.0 | 5.2 | 0.00 | 0.00 | 0.00 | 91 | 1013.8 |
| 20260502150945 | 58 | 35 | 3.5 | 6.1 | 0.00 | 0.00 | 0.00 | 91 | 1013.4 |
| 20260502150438 | 58 | 104 | 2.6 | 6.1 | 0.00 | 0.00 | 0.00 | 91 | 1013.4 |
| 20260502130650 | 57 | 190 | 0.0 | 1.7 | 0.00 | 0.00 | 0.00 | 93 | 1012.8 |
| 20260502130143 | 57 | 188 | 0.9 | 1.7 | 0.00 | 0.00 | 0.00 | 93 | 1012.8 |
| 20260502123606 | 57 | 241 | 0.9 | 2.6 | 0.00 | 0.00 | 0.00 | 93 | 1012.8 |
| 20260502123059 | 57 | 270 | 0.0 | 3.5 | 0.00 | 0.00 | 0.00 | 93 | 1012.8 |
| 20260502122552 | 57 | 202 | 1.7 | 3.5 | 0.00 | 0.00 | 0.00 | 93 | 1012.8 |
| 20260502122044 | 57 | 211 | 2.6 | 3.5 | 0.00 | 0.00 | 0.00 | 93 | 1012.8 |
| 20260502121537 | 57 | 236 | 2.6 | 5.2 | 0.00 | 0.00 | 0.00 | 93 | 1012.4 |
| 20260502121030 | 57 | 221 | 3.5 | 5.2 | 0.00 | 0.00 | 0.00 | 93 | 1012.4 |
| 20260502120523 | 57 | 278 | 0.9 | 6.1 | 0.00 | 0.00 | 0.00 | 93 | 1012.4 |
| 20260502115509 | 57 | 231 | 4.3 | 5.2 | 0.00 | 0.00 | 0.00 | 93 | 1012.8 |
| 20260502115001 | 57 | 245 | 1.7 | 5.2 | 0.00 | 0.00 | 0.00 | 92 | 1012.4 |
| 20260502114454 | 58 | 232 | 3.5 | 5.2 | 0.00 | 0.00 | 0.00 | 93 | 1012.4 |
| 20260502113947 | 58 | 184 | 1.7 | 5.2 | 0.00 | 0.00 | 0.00 | 92 | 1012.8 |
| 20260502113439 | 58 | 213 | 4.3 | 5.2 | 0.00 | 0.00 | 0.00 | 92 | 1012.4 |
| 20260502112932 | 58 | 225 | 1.7 | 2.6 | 0.00 | 0.00 | 0.00 | 92 | 1012.4 |
| 20260502112426 | 58 | 233 | 1.7 | 3.5 | 0.00 | 0.00 | 0.00 | 92 | 1012.4 |
| 20260502111918 | 58 | 240 | 1.7 | 3.5 | 0.00 | 0.00 | 0.00 | 92 | 1012.4 |
| 20260502111410 | 58 | 261 | 1.7 | 1.7 | 0.00 | 0.00 | 0.00 | 92 | 1012.4 |
| 20260502110903 | 57 | 270 | 0.9 | 1.7 | 0.00 | 0.00 | 0.00 | 92 | 1012.4 |
| 20260502110356 | 57 | 259 | 0.9 | 2.6 | 0.00 | 0.00 | 0.00 | 92 | 1012.4 |
| 20260502105849 | 57 | 282 | 0.0 | 2.6 | 0.00 | 0.00 | 0.00 | 92 | 1012.4 |
| 20260502105341 | 58 | 241 | 1.7 | 2.6 | 0.00 | 0.00 | 0.00 | 92 | 1012.4 |
| 20260502104834 | 58 | 228 | 1.7 | 3.5 | 0.00 | 0.00 | 0.00 | 92 | 1012.1 |
| 20260502104327 | 58 | 186 | 1.7 | 3.5 | 0.00 | 0.00 | 0.00 | 92 | 1012.4 |
| 20260502103820 | 58 | 277 | 0.9 | 1.7 | 0.00 | 0.00 | 0.00 | 92 | 1012.1 |
| 20260502102804 | 58 | 261 | 0.0 | 2.6 | 0.00 | 0.00 | 0.00 | 92 | 1012.4 |
| 20260502102258 | 58 | 248 | 0.0 | 2.6 | 0.00 | 0.00 | 0.00 | 92 | 1012.4 |
| 20260502101243 | 57 | 225 | 2.6 | 3.5 | 0.00 | 0.00 | 0.00 | 92 | 1012.1 |
| 20260502100736 | 57 | 273 | 0.9 | 3.5 | 0.00 | 0.00 | 0.00 | 92 | 1012.1 |
| 20260502100229 | 57 | 275 | 0.9 | 3.5 | 0.00 | 0.00 | 0.00 | 92 | 1012.1 |
| 20260502091116 | 58 | 276 | 1.7 | 2.6 | 0.00 | 0.00 | 0.00 | 90 | 1012.4 |
| 20260502090609 | 58 | 279 | 1.7 | 1.7 | 0.00 | 0.00 | 0.00 | 90 | 1012.4 |
| 20260502071330 | 58 | 235 | 0.9 | 2.6 | 0.00 | 0.00 | 0.00 | 88 | 1013.1 |
| 20260502070822 | 58 | 239 | 0.9 | 2.6 | 0.00 | 0.00 | 0.00 | 88 | 1013.1 |
| 20260502070315 | 59 | 225 | 1.7 | 2.6 | 0.00 | 0.00 | 0.00 | 88 | 1013.4 |
| 20260502064753 | 59 | 244 | 0.9 | 2.6 | 0.00 | 0.00 | 0.00 | 87 | 1013.4 |
| 20260502064247 | 59 | 198 | 2.6 | 2.6 | 0.00 | 0.00 | 0.00 | 87 | 1013.4 |
| 20260502063738 | 59 | 186 | 2.6 | 3.5 | 0.00 | 0.00 | 0.00 | 87 | 1013.4 |
| 20260502063231 | 59 | 155 | 2.6 | 3.5 | 0.00 | 0.00 | 0.00 | 87 | 1013.1 |
| 20260502062724 | 59 | 284 | 0.9 | 1.7 | 0.00 | 0.00 | 0.00 | 87 | 1013.1 |
| 20260502061202 | 59 | 96 | 0.9 | 3.5 | 0.00 | 0.00 | 0.00 | 87 | 1012.8 |
| 20260502060655 | 59 | 14 | 0.9 | 5.2 | 0.00 | 0.00 | 0.00 | 87 | 1012.8 |
| 20260502055641 | 59 | 339 | 0.0 | 3.5 | 0.00 | 0.00 | 0.00 | 87 | 1013.1 |
| 20260502055134 | 59 | 83 | 1.7 | 2.6 | 0.00 | 0.00 | 0.00 | 87 | 1013.1 |
| 20260502054626 | 60 | 160 | 0.9 | 2.6 | 0.00 | 0.00 | 0.00 | 87 | 1012.8 |
| 20260502054118 | 59 | 57 | 0.9 | 2.6 | 0.00 | 0.00 | 0.00 | 87 | 1012.8 |
| 20260502053104 | 59 | 142 | 1.7 | 2.6 | 0.00 | 0.00 | 0.00 | 88 | 1013.1 |
| 20260502052557 | 59 | 234 | 0.9 | 3.5 | 0.00 | 0.00 | 0.00 | 88 | 1013.1 |
| 20260502052050 | 59 | 199 | 0.9 | 5.2 | 0.00 | 0.00 | 0.00 | 88 | 1013.1 |
| 20260502051035 | 59 | 108 | 0.9 | 2.6 | 0.00 | 0.00 | 0.00 | 88 | 1012.8 |
| 20260502050528 | 59 | 287 | 0.0 | 2.6 | 0.00 | 0.00 | 0.00 | 88 | 1013.1 |
| 20260502050020 | 59 | 264 | 0.0 | 2.6 | 0.00 | 0.00 | 0.00 | 88 | 1012.8 |
| 20260502045513 | 59 | 200 | 1.7 | 2.6 | 0.00 | 0.00 | 0.00 | 88 | 1012.8 |
| 20260502045006 | 59 | 344 | 0.0 | 1.7 | 0.00 | 0.00 | 0.00 | 88 | 1012.8 |
| 20260502044500 | 59 | 188 | 0.0 | 1.7 | 0.00 | 0.00 | 0.00 | 88 | 1012.8 |
| 20260502043951 | 59 | 283 | 0.0 | 1.7 | 0.00 | 0.00 | 0.00 | 88 | 1012.8 |
| 20260502043444 | 59 | 345 | 0.9 | 1.7 | 0.00 | 0.00 | 0.00 | 88 | 1012.4 |
| 20260502042937 | 59 | 184 | 0.9 | 2.6 | 0.00 | 0.00 | 0.00 | 89 | 1012.4 |
| 20260502042430 | 59 | 231 | 0.9 | 2.6 | 0.00 | 0.00 | 0.00 | 89 | 1012.4 |
| 20260502041923 | 59 | 261 | 0.0 | 2.6 | 0.00 | 0.00 | 0.00 | 89 | 1012.4 |
| 20260502041415 | 59 | 207 | 1.7 | 2.6 | 0.00 | 0.00 | 0.00 | 89 | 1012.4 |
| 20260502040908 | 59 | 221 | 1.7 | 2.6 | 0.00 | 0.00 | 0.00 | 89 | 1012.4 |
| 20260502040401 | 59 | 187 | 1.7 | 3.5 | 0.00 | 0.00 | 0.00 | 89 | 1012.1 |
| 20260502035854 | 59 | 199 | 1.7 | 3.5 | 0.00 | 0.00 | 0.00 | 89 | 1012.1 |
| 20260502035346 | 59 | 253 | 1.7 | 2.6 | 0.00 | 0.00 | 0.00 | 89 | 1012.1 |
| 20260502034839 | 59 | 210 | 1.7 | 2.6 | 0.00 | 0.00 | 0.00 | 89 | 1012.1 |
| 20260502034332 | 59 | 187 | 1.7 | 2.6 | 0.00 | 0.00 | 0.00 | 89 | 1011.8 |
| 20260502033825 | 59 | 185 | 1.7 | 2.6 | 0.00 | 0.00 | 0.00 | 89 | 1011.8 |
| 20260502033317 | 59 | 237 | 0.9 | 2.6 | 0.00 | 0.00 | 0.00 | 89 | 1011.8 |
| 20260502032809 | 59 | 212 | 1.7 | 5.2 | 0.00 | 0.00 | 0.00 | 89 | 1011.4 |
| 20260502032305 | 59 | 258 | 1.7 | 5.2 | 0.00 | 0.00 | 0.00 | 88 | 1011.4 |
| 20260502031755 | 59 | 244 | 2.6 | 6.1 | 0.00 | 0.00 | 0.00 | 88 | 1011.4 |
| 20260502031248 | 60 | 231 | 2.6 | 7.0 | 0.00 | 0.00 | 0.00 | 88 | 1011.4 |
| 20260502030740 | 60 | 239 | 3.5 | 7.0 | 0.00 | 0.00 | 0.00 | 87 | 1011.4 |
| 20260502030233 | 60 | 209 | 1.7 | 5.2 | 0.00 | 0.00 | 0.00 | 87 | 1011.4 |
| 20260502025726 | 60 | 209 | 1.7 | 7.0 | 0.00 | 0.00 | 0.00 | 87 | 1011.4 |
| 20260502025219 | 60 | 278 | 3.5 | 7.8 | 0.00 | 0.00 | 0.00 | 86 | 1011.1 |
| 20260502024204 | 60 | 246 | 5.2 | 9.6 | 0.00 | 0.00 | 0.00 | 85 | 1011.4 |
| 20260502023657 | 60 | 253 | 3.5 | 7.8 | 0.00 | 0.00 | 0.00 | 85 | 1011.4 |
| 20260502023150 | 61 | 253 | 6.1 | 8.7 | 0.00 | 0.00 | 0.00 | 84 | 1011.4 |
| 20260502022643 | 61 | 245 | 6.1 | 8.7 | 0.00 | 0.00 | 0.00 | 84 | 1011.4 |
| 20260502022135 | 61 | 275 | 7.0 | 7.8 | 0.00 | 0.00 | 0.00 | 83 | 1011.4 |
| 20260502021628 | 61 | 233 | 3.5 | 7.0 | 0.00 | 0.00 | 0.00 | 83 | 1011.1 |
| 20260502021121 | 61 | 252 | 3.5 | 8.7 | 0.00 | 0.00 | 0.00 | 83 | 1011.1 |
| 20260502020106 | 62 | 268 | 2.6 | 8.7 | 0.00 | 0.00 | 0.00 | 83 | 1011.1 |
| 20260502015558 | 62 | 224 | 6.1 | 9.6 | 0.00 | 0.00 | 0.00 | 82 | 1011.1 |
| 20260502015051 | 62 | 264 | 4.3 | 12.2 | 0.00 | 0.00 | 0.00 | 83 | 1011.1 |
| 20260502014544 | 62 | 271 | 2.6 | 12.2 | 0.00 | 0.00 | 0.00 | 82 | 1011.1 |
| 20260502014037 | 62 | 216 | 4.3 | 12.2 | 0.00 | 0.00 | 0.00 | 81 | 1011.1 |
| 20260502013529 | 62 | 251 | 5.2 | 12.2 | 0.00 | 0.00 | 0.00 | 81 | 1010.7 |
| 20260502013022 | 63 | 211 | 7.0 | 11.3 | 0.00 | 0.00 | 0.00 | 80 | 1011.1 |
| 20260502012515 | 63 | 241 | 3.5 | 11.3 | 0.00 | 0.00 | 0.00 | 79 | 1011.1 |
| 20260502012008 | 63 | 210 | 9.6 | 11.3 | 0.00 | 0.00 | 0.00 | 79 | 1011.1 |
| 20260502011501 | 63 | 207 | 5.2 | 9.6 | 0.00 | 0.00 | 0.00 | 79 | 1011.1 |
| 20260502010953 | 63 | 241 | 2.6 | 12.2 | 0.00 | 0.00 | 0.00 | 79 | 1011.1 |
| 20260502010446 | 63 | 228 | 6.1 | 12.2 | 0.00 | 0.00 | 0.00 | 78 | 1011.1 |
| 20260502005938 | 64 | 239 | 9.6 | 12.2 | 0.00 | 0.00 | 0.00 | 76 | 1011.1 |
| 20260502004417 | 64 | 230 | 10.4 | 14.8 | 0.00 | 0.00 | 0.00 | 76 | 1011.1 |
| 20260502003909 | 64 | 218 | 7.8 | 14.8 | 0.00 | 0.00 | 0.00 | 77 | 1011.1 |
| 20260502003402 | 64 | 255 | 7.0 | 13.9 | 0.00 | 0.00 | 0.00 | 76 | 1010.7 |
| 20260502002855 | 64 | 231 | 11.3 | 13.9 | 0.00 | 0.00 | 0.00 | 75 | 1011.1 |
| 20260502002347 | 65 | 229 | 7.8 | 13.9 | 0.00 | 0.00 | 0.00 | 74 | 1011.1 |
| 20260502001841 | 65 | 237 | 7.0 | 13.9 | 0.00 | 0.00 | 0.00 | 74 | 1011.1 |
| 20260502001333 | 64 | 236 | 6.1 | 12.2 | 0.00 | 0.00 | 0.00 | 75 | 1010.7 |
| 20260502000825 | 65 | 241 | 7.8 | 13.9 | 0.00 | 0.00 | 0.00 | 74 | 1011.1 |
| 20260501235812 | 66 | 281 | 4.3 | 14.8 | 0.00 | 0.00 | 0.00 | 73 | 1011.1 |
| 20260501235305 | 65 | 243 | 7.8 | 14.8 | 0.00 | 0.00 | 0.00 | 74 | 1011.1 |
| 20260501234756 | 66 | 212 | 10.4 | 14.8 | 0.00 | 0.00 | 0.00 | 72 | 1011.1 |
| 20260501234249 | 65 | 181 | 7.8 | 13.9 | 0.00 | 0.00 | 0.00 | 73 | 1011.1 |
| 20260501233742 | 65 | 201 | 10.4 | 14.8 | 0.00 | 0.00 | 0.00 | 74 | 1011.1 |
| 20260501233234 | 65 | 263 | 9.6 | 14.8 | 0.00 | 0.00 | 0.00 | 73 | 1011.1 |
| 20260501232727 | 66 | 225 | 9.6 | 13.9 | 0.00 | 0.00 | 0.00 | 72 | 1011.1 |
| 20260501232220 | 65 | 197 | 7.8 | 15.6 | 0.00 | 0.00 | 0.00 | 74 | 1011.1 |
| 20260501231713 | 65 | 225 | 10.4 | 15.6 | 0.00 | 0.00 | 0.00 | 75 | 1011.4 |
| 20260501231206 | 66 | 220 | 8.7 | 14.8 | 0.00 | 0.00 | 0.00 | 72 | 1011.1 |
| 20260501230659 | 66 | 227 | 10.4 | 14.8 | 0.00 | 0.00 | 0.00 | 73 | 1011.1 |
| 20260501230151 | 67 | 220 | 8.7 | 13.9 | 0.00 | 0.00 | 0.00 | 72 | 1011.1 |
| 20260501225136 | 66 | 219 | 5.2 | 13.0 | 0.00 | 0.00 | 0.00 | 73 | 1011.4 |
| 20260501224629 | 66 | 268 | 6.1 | 13.0 | 0.00 | 0.00 | 0.00 | 74 | 1011.4 |
| 20260501224121 | 66 | 257 | 8.7 | 12.2 | 0.00 | 0.00 | 0.00 | 73 | 1011.4 |
| 20260501223614 | 65 | 267 | 7.0 | 13.0 | 0.00 | 0.00 | 0.00 | 75 | 1011.4 |
| 20260501223107 | 66 | 226 | 7.8 | 14.8 | 0.00 | 0.00 | 0.00 | 74 | 1011.4 |
| 20260501222600 | 66 | 203 | 4.3 | 13.0 | 0.00 | 0.00 | 0.00 | 74 | 1011.8 |
| 20260501222053 | 66 | 264 | 10.4 | 13.0 | 0.00 | 0.00 | 0.00 | 73 | 1011.8 |
| 20260501221546 | 66 | 246 | 6.1 | 13.9 | 0.00 | 0.00 | 0.00 | 75 | 1011.8 |
| 20260501221038 | 66 | 244 | 9.6 | 15.6 | 0.00 | 0.00 | 0.00 | 74 | 1011.8 |
| 20260501220530 | 66 | 209 | 13.0 | 15.6 | 0.00 | 0.00 | 0.00 | 73 | 1012.1 |
| 20260501220023 | 67 | 270 | 10.4 | 13.0 | 0.00 | 0.00 | 0.00 | 72 | 1012.1 |
| 20260501215516 | 65 | 269 | 4.3 | 13.0 | 0.00 | 0.00 | 0.00 | 74 | 1012.1 |
| 20260501214502 | 66 | 246 | 6.1 | 13.9 | 0.00 | 0.00 | 0.00 | 73 | 1012.4 |
| 20260501213447 | 65 | 204 | 7.8 | 13.0 | 0.00 | 0.00 | 0.00 | 74 | 1012.4 |
| 20260501212432 | 66 | 251 | 7.8 | 13.0 | 0.00 | 0.00 | 0.00 | 72 | 1012.4 |
| 20260501211418 | 66 | 245 | 9.6 | 11.3 | 0.00 | 0.00 | 0.00 | 72 | 1012.8 |
| 20260501210911 | 66 | 259 | 7.8 | 13.0 | 0.00 | 0.00 | 0.00 | 71 | 1012.4 |
| 20260501210404 | 67 | 308 | 7.8 | 13.0 | 0.00 | 0.00 | 0.00 | 70 | 1012.4 |
| 20260501205856 | 66 | 203 | 3.5 | 13.0 | 0.00 | 0.00 | 0.00 | 72 | 1012.8 |
| 20260501205348 | 66 | 251 | 8.7 | 13.0 | 0.00 | 0.00 | 0.00 | 72 | 1012.8 |
| 20260501204841 | 65 | 269 | 7.0 | 12.2 | 0.00 | 0.00 | 0.00 | 72 | 1012.4 |
| 20260501204334 | 66 | 235 | 8.7 | 12.2 | 0.00 | 0.00 | 0.00 | 72 | 1012.8 |
| 20260501203827 | 66 | 238 | 7.0 | 13.0 | 0.00 | 0.00 | 0.00 | 72 | 1012.8 |
| 20260501203320 | 65 | 282 | 7.8 | 13.0 | 0.00 | 0.00 | 0.00 | 73 | 1012.8 |
| 20260501202813 | 66 | 268 | 7.0 | 12.2 | 0.00 | 0.00 | 0.00 | 71 | 1012.8 |
| 20260501202306 | 65 | 258 | 9.6 | 12.2 | 0.00 | 0.00 | 0.00 | 73 | 1012.8 |
| 20260501201757 | 66 | 232 | 10.4 | 12.2 | 0.00 | 0.00 | 0.00 | 71 | 1012.8 |
| 20260501201251 | 66 | 206 | 9.6 | 12.2 | 0.00 | 0.00 | 0.00 | 72 | 1012.8 |
| 20260501200237 | 66 | 235 | 6.1 | 12.2 | 0.00 | 0.00 | 0.00 | 71 | 1012.8 |
| 20260501195221 | 65 | 264 | 6.1 | 11.3 | 0.00 | 0.00 | 0.00 | 72 | 1013.1 |
| 20260501194714 | 65 | 200 | 5.2 | 12.2 | 0.00 | 0.00 | 0.00 | 73 | 1013.1 |
| 20260501194207 | 65 | 264 | 7.0 | 13.0 | 0.00 | 0.00 | 0.00 | 73 | 1013.1 |
| 20260501193700 | 65 | 242 | 7.8 | 13.0 | 0.00 | 0.00 | 0.00 | 73 | 1013.1 |
| 20260501193153 | 66 | 268 | 8.7 | 12.2 | 0.00 | 0.00 | 0.00 | 72 | 1013.1 |
| 20260501192645 | 66 | 214 | 7.8 | 12.2 | 0.00 | 0.00 | 0.00 | 72 | 1013.1 |
| 20260501192139 | 66 | 196 | 5.2 | 11.3 | 0.00 | 0.00 | 0.00 | 72 | 1013.1 |
| 20260501191631 | 66 | 210 | 5.2 | 11.3 | 0.00 | 0.00 | 0.00 | 71 | 1013.1 |
| 20260501191123 | 66 | 259 | 4.3 | 11.3 | 0.00 | 0.00 | 0.00 | 71 | 1013.1 |
| 20260501190616 | 67 | 243 | 6.1 | 13.0 | 0.00 | 0.00 | 0.00 | 70 | 1013.1 |
| 20260501190109 | 67 | 215 | 6.1 | 13.0 | 0.00 | 0.00 | 0.00 | 70 | 1013.4 |